Ballenas Island, British Columbia

10:42 PM PDT on April 24, 2017 (GMT -0700)
Ballenas Island

Weather History for CWGB - January, 2014

Change the Weather History Date:

Saturday, January 11, 2014

  Actual Average Record
Temperature  
Mean Temperature 45 °F -  
Max Temperature 48 °F - - ()
Min Temperature 42 °F - - ()
Degree Days  
Heating Degree Days 20    
Moisture  
Dew Point 41 °F    
Average Humidity 84    
Maximum Humidity 95    
Minimum Humidity 70    
Precipitation  
Precipitation 0.71 in - - ()
Sea Level Pressure  
Sea Level Pressure 29.28 in    
Wind  
Wind Speed 17 mph ()    
Max Wind Speed 36 mph    
Max Gust Speed 44 mph    
T = Trace of Precipitation, MM = Missing Value Source: Averaged Metar Reports

Daily Weather History Graph

Daily Weather History Graph

Search for Another Location

Airport or City:

Trip Planner

Search our weather history database for the weather conditions in past years. The results will help you decide how hot, cold, wet, or windy it might be!

Date:

Astronomy

Jan. 11, 2014 Rise Set
Actual Time 8:09 AM PST 4:40 PM PST
Civil Twilight 7:32 AM PST 5:17 PM PST
Nautical Twilight 6:52 AM PST 5:57 PM PST
Astronomical Twilight 6:14 AM PST 6:35 PM PST
Moon 1:32 PM PST (1/11) 4:14 AM PST (1/11)
Length of Visible Light 9h 44m
Length of Day
8h 31m
Waxing Gibbous, 84% of the Moon is Illuminated
Jan 11
Waxing Gibbous
Jan 15
Full
Jan 23
Last Quarter
Jan 30
New
Feb 6
First Quarter

Hourly Weather History & Observations

Time (PST) Temp. Windchill Dew Point Humidity Pressure Visibility Wind Dir Wind Speed Gust Speed Precip Events Conditions
12:00 AM 44.4 °F 33.7 °F 42.8 °F 94% 29.31 in - ESE 35.7 mph 43.7 mph 0.17 in   Unknown
1:00 AM 45.3 °F 35.4 °F 43.9 °F 95% 29.24 in - ESE 32.2 mph 39.1 mph 0.17 in   Unknown
2:00 AM 46.0 °F 36.5 °F 44.6 °F 95% 29.19 in - ESE 31.1 mph - 0.15 in   Unknown
3:00 AM 47.8 °F - 46.2 °F 94% 29.22 in - SE 11.5 mph - 0.02 in   Unknown
4:00 AM 47 °F - 44 °F 86% 29.21 in - South 4.6 mph - -  
4:00 AM 46.9 °F - 44.1 °F 90% 29.21 in - South 4.6 mph - 0.03 in   Unknown
5:00 AM 47.5 °F - 41.5 °F 80% 29.20 in - SSE 4.6 mph - N/A   Unknown
6:00 AM 46.0 °F 38.5 °F 40.8 °F 82% 29.24 in - WSW 19.6 mph - 0.03 in   Unknown
7:00 AM 44.4 °F - 39.9 °F 84% 29.23 in - SE 2.3 mph - 0.01 in   Unknown
8:00 AM 45.0 °F 41.2 °F 37.9 °F 76% 29.23 in - South 6.9 mph - N/A   Unknown
9:00 AM 45.9 °F 39.4 °F 38.8 °F 76% 29.21 in - ESE 15.0 mph 24.2 mph 0.01 in   Unknown
10:00 AM 46 °F - 40 °F 72% 29.19 in - ESE 21.9 mph - -  
10:00 AM 45.7 °F 37.6 °F 39.7 °F 80% 29.19 in - ESE 21.9 mph 27.6 mph 0.11 in   Unknown
11:00 AM 44.2 °F 38.0 °F 40.8 °F 88% 29.19 in - SE 12.7 mph 18.4 mph 0.04 in   Unknown
12:00 PM 42.4 °F 31.8 °F 39.0 °F 88% 29.14 in - ESE 29.9 mph - 0.10 in   Unknown
1:00 PM 44.1 °F 35.4 °F 41.2 °F 90% 29.12 in - ESE 21.9 mph - 0.06 in   Unknown
2:00 PM 45.1 °F 38.8 °F 40.5 °F 84% 29.12 in - ESE 13.8 mph - N/A   Unknown
3:00 PM 43.2 °F 40.5 °F 40.5 °F 90% 29.15 in - SE 4.6 mph - 0.02 in   Unknown
4:00 PM 42 °F - 39 °F 84% 29.18 in - SSW 4.6 mph - -  
4:00 PM 42.1 °F 39.2 °F 38.8 °F 88% 29.18 in - SSW 4.6 mph - 0.02 in   Unknown
5:00 PM 42.1 °F 38.4 °F 38.7 °F 88% 29.25 in - WSW 5.8 mph - N/A   Unknown
6:00 PM 45.1 °F 36.0 °F 39.9 °F 82% 29.31 in - West 26.5 mph - N/A   Unknown
7:00 PM 44.8 °F 35.5 °F 39.7 °F 82% 29.40 in - WNW 26.5 mph - N/A   Unknown
8:00 PM 44.8 °F 35.9 °F 39.2 °F 81% 29.47 in - West 24.2 mph - N/A   Unknown
9:00 PM 45.0 °F 36.6 °F 39.6 °F 81% 29.54 in - NW 21.9 mph - N/A   Unknown
10:00 PM 45 °F - 38 °F 70% 29.61 in - WNW 23.0 mph - -  
10:00 PM 45.3 °F 36.9 °F 38.5 °F 77% 29.61 in - WNW 23.0 mph - N/A   Unknown
11:00 PM 45.0 °F 36.4 °F 38.3 °F 77% 29.66 in - WNW 23.0 mph - N/A   Unknown